| time (UTC) | temp F | wind direction | speed MPH | gust MPH | rain 1hr in | rain 24hr in | rain mn in | humidity % | barometer mb |
| 20260901063115 | 66 | 0 | 0.0 | 3.0 | 0.00 | 0.17 | 0.17 | 78 | 1019.7 |
| 20260901061621 | 66 | 0 | 0.0 | 3.0 | 0.00 | 0.17 | 0.17 | 78 | 1019.6 |
| 20260901060106 | 66 | 0 | 0.0 | 2.0 | 0.00 | 0.17 | 0.17 | 79 | 1019.6 |
| 20260901054602 | 67 | 0 | 0.0 | 2.0 | 0.00 | 0.17 | 0.17 | 79 | 1019.4 |
| 20260901053107 | 67 | 275 | 0.0 | 3.0 | 0.00 | 0.17 | 0.17 | 78 | 1019.4 |
| 20260901051618 | 68 | 0 | 0.0 | 2.0 | 0.00 | 0.17 | 0.17 | 77 | 1019.3 |
| 20260901050109 | 68 | 317 | 0.0 | 3.0 | 0.00 | 0.17 | 0.17 | 78 | 1019.1 |
| 20260901044604 | 68 | 245 | 1.0 | 4.0 | 0.00 | 0.17 | 0.17 | 77 | 1019.2 |
| 20260901043108 | 68 | 0 | 2.0 | 5.0 | 0.00 | 0.17 | 0.17 | 79 | 1019.1 |
| 20260901041603 | 69 | 0 | 0.0 | 1.0 | 0.00 | 0.17 | 0.17 | 80 | 1018.9 |
| 20260901040106 | 70 | 0 | 0.0 | 1.0 | 0.00 | 0.17 | 0.17 | 78 | 1018.7 |
| 20260901034609 | 70 | 0 | 0.0 | 2.0 | 0.00 | 0.17 | 0.17 | 77 | 1018.5 |
| 20260901033115 | 71 | 0 | 0.0 | 3.0 | 0.00 | 0.17 | 0.17 | 74 | 1018.3 |
| 20260901031604 | 71 | 238 | 0.0 | 3.0 | 0.00 | 0.17 | 0.17 | 74 | 1018.0 |
| 20260901030105 | 71 | 0 | 0.0 | 2.0 | 0.00 | 0.17 | 0.17 | 74 | 1017.9 |
| 20260901024615 | 71 | 0 | 0.0 | 3.0 | 0.00 | 0.17 | 0.17 | 75 | 1017.9 |
| 20260901023106 | 72 | 0 | 0.0 | 2.0 | 0.00 | 0.17 | 0.17 | 74 | 1017.9 |
| 20260901021605 | 72 | 238 | 0.0 | 2.0 | 0.00 | 0.17 | 0.17 | 74 | 1017.9 |
| 20260901020101 | 73 | 237 | 0.0 | 3.0 | 0.00 | 0.17 | 0.17 | 73 | 1017.8 |
| 20260901014610 | 74 | 0 | 0.0 | 1.0 | 0.00 | 0.17 | 0.17 | 72 | 1017.7 |
| 20260901013101 | 75 | 0 | 0.0 | 1.0 | 0.00 | 0.17 | 0.17 | 70 | 1017.7 |
| 20260901011607 | 76 | 0 | 0.0 | 1.0 | 0.00 | 0.17 | 0.17 | 68 | 1017.6 |
| 20260901010115 | 76 | 0 | 0.0 | 2.0 | 0.00 | 0.17 | 0.17 | 65 | 1017.7 |
| 20260901004618 | 76 | 0 | 0.0 | 3.0 | 0.00 | 0.17 | 0.17 | 65 | 1017.9 |
| 20260901003102 | 76 | 0 | 0.0 | 3.0 | 0.00 | 0.17 | 0.17 | 65 | 1017.9 |
| 20260901001606 | 77 | 104 | 1.0 | 6.0 | 0.00 | 0.17 | 0.17 | 63 | 1018.0 |
| 20260901000109 | 77 | 0 | 0.0 | 3.0 | 0.00 | 0.17 | 0.17 | 62 | 1018.0 |
| 20260831234603 | 77 | 0 | 0.0 | 6.0 | 0.00 | 0.17 | 0.17 | 63 | 1018.3 |
| 20260831233105 | 78 | 111 | 2.0 | 6.0 | 0.00 | 0.17 | 0.17 | 60 | 1018.4 |
| 20260831231609 | 78 | 103 | 1.0 | 6.0 | 0.00 | 0.17 | 0.17 | 60 | 1018.4 |
| 20260831230059 | 79 | 0 | 1.0 | 6.0 | 0.00 | 0.17 | 0.17 | 58 | 1018.6 |
| 20260831224610 | 78 | 180 | 1.0 | 4.0 | 0.00 | 0.17 | 0.17 | 61 | 1019.1 |
| 20260831223107 | 77 | 60 | 1.0 | 7.0 | 0.00 | 0.17 | 0.17 | 61 | 1019.4 |
| 20260831221610 | 78 | 86 | 1.0 | 4.0 | 0.00 | 0.17 | 0.17 | 60 | 1019.4 |
| 20260831220103 | 77 | 0 | 0.0 | 9.0 | 0.00 | 0.17 | 0.17 | 64 | 1019.7 |
| 20260831214607 | 78 | 76 | 2.0 | 8.0 | 0.00 | 0.17 | 0.17 | 63 | 1019.8 |
| 20260831213101 | 78 | 61 | 4.0 | 10.0 | 0.00 | 0.17 | 0.17 | 63 | 1020.1 |
| 20260831211601 | 76 | 134 | 2.0 | 9.0 | 0.00 | 0.17 | 0.17 | 67 | 1020.1 |
| 20260831210106 | 76 | 61 | 2.0 | 6.0 | 0.00 | 0.17 | 0.17 | 67 | 1020.3 |
| 20260831204603 | 76 | 79 | 1.0 | 5.0 | 0.00 | 0.17 | 0.17 | 66 | 1020.7 |
| 20260831203107 | 75 | 0 | 0.0 | 3.0 | 0.00 | 0.17 | 0.17 | 67 | 1020.7 |
| 20260831201606 | 75 | 56 | 0.0 | 3.0 | 0.00 | 0.17 | 0.17 | 68 | 1020.7 |
| 20260831200107 | 75 | 0 | 0.0 | 1.0 | 0.00 | 0.17 | 0.17 | 68 | 1020.9 |
| 20260831194640 | 74 | 82 | 0.0 | 3.0 | 0.00 | 0.17 | 0.17 | 69 | 1020.9 |
| 20260831193104 | 74 | 0 | 0.0 | 6.0 | 0.00 | 0.17 | 0.17 | 69 | 1021.1 |
| 20260831191606 | 74 | 0 | 0.0 | 3.0 | 0.00 | 0.17 | 0.17 | 70 | 1021.1 |
| 20260831190130 | 73 | 0 | 2.0 | 7.0 | 0.00 | 0.17 | 0.17 | 71 | 1021.2 |
| 20260831184614 | 73 | 114 | 1.0 | 7.0 | 0.00 | 0.17 | 0.17 | 72 | 1021.3 |
| 20260831183102 | 73 | 67 | 2.0 | 7.0 | 0.00 | 0.17 | 0.17 | 71 | 1021.5 |
| 20260831181604 | 73 | 0 | 1.0 | 9.0 | 0.00 | 0.17 | 0.17 | 71 | 1021.4 |
| 20260831180105 | 73 | 93 | 4.0 | 9.0 | 0.00 | 0.17 | 0.17 | 72 | 1021.5 |
| 20260831174633 | 73 | 103 | 4.0 | 12.0 | 0.00 | 0.17 | 0.17 | 75 | 1021.5 |
| 20260831173105 | 71 | 84 | 3.0 | 8.0 | 0.00 | 0.17 | 0.17 | 77 | 1021.6 |
| 20260831171603 | 69 | 0 | 1.0 | 4.0 | 0.00 | 0.17 | 0.17 | 83 | 1021.8 |
| 20260831170100 | 67 | 0 | 0.0 | 2.0 | 0.00 | 0.17 | 0.17 | 87 | 1021.9 |
| 20260831164605 | 67 | 352 | 0.0 | 2.0 | 0.00 | 0.17 | 0.17 | 88 | 1022.0 |
| 20260831163107 | 66 | 49 | 0.0 | 3.0 | 0.00 | 0.17 | 0.17 | 86 | 1021.8 |
| 20260831161606 | 66 | 0 | 0.0 | 3.0 | 0.00 | 0.17 | 0.17 | 86 | 1021.6 |
| 20260831160106 | 66 | 88 | 2.0 | 8.0 | 0.00 | 0.17 | 0.17 | 85 | 1020.8 |
| 20260831154627 | 66 | 109 | 1.0 | 3.0 | 0.00 | 0.17 | 0.17 | 84 | 1021.1 |
| 20260831153118 | 65 | 0 | 0.0 | 1.0 | 0.00 | 0.17 | 0.17 | 86 | 1021.1 |
| 20260831151610 | 65 | 0 | 0.0 | 1.0 | 0.00 | 0.17 | 0.17 | 87 | 1021.0 |
| 20260831150106 | 64 | 0 | 0.0 | 0.0 | 0.00 | 0.17 | 0.17 | 89 | 1020.9 |
| 20260831144605 | 64 | 0 | 0.0 | 1.0 | 0.00 | 0.17 | 0.17 | 89 | 1020.9 |
| 20260831143109 | 64 | 0 | 0.0 | 0.0 | 0.00 | 0.17 | 0.17 | 89 | 1020.5 |
| 20260831141605 | 63 | 0 | 0.0 | 1.0 | 0.00 | 0.17 | 0.17 | 88 | 1020.3 |
| 20260831140104 | 63 | 0 | 0.0 | 1.0 | 0.00 | 0.17 | 0.17 | 87 | 1020.0 |
| 20260831134614 | 63 | 0 | 0.0 | 3.0 | 0.00 | 0.17 | 0.17 | 86 | 1019.5 |
| 20260831133107 | 63 | 0 | 0.0 | 0.0 | 0.00 | 0.17 | 0.17 | 85 | 1019.0 |
| 20260831131601 | 62 | 0 | 0.0 | 1.0 | 0.00 | 0.17 | 0.17 | 85 | 1018.8 |
| 20260831130109 | 62 | 0 | 0.0 | 2.0 | 0.00 | 0.17 | 0.17 | 84 | 1018.8 |
| 20260831124608 | 62 | 0 | 0.0 | 0.0 | 0.00 | 0.17 | 0.17 | 86 | 1018.7 |
| 20260831123105 | 62 | 244 | 0.0 | 1.0 | 0.00 | 0.17 | 0.17 | 83 | 1018.2 |
| 20260831121617 | 62 | 0 | 0.0 | 1.0 | 0.00 | 0.17 | 0.17 | 82 | 1018.0 |
| 20260831120111 | 62 | 0 | 0.0 | 1.0 | 0.00 | 0.17 | 0.17 | 80 | 1017.8 |
| 20260831114605 | 62 | 0 | 0.0 | 4.0 | 0.00 | 0.17 | 0.17 | 81 | 1017.5 |
| 20260831113111 | 62 | 227 | 1.0 | 4.0 | 0.00 | 0.17 | 0.17 | 83 | 1017.6 |
| 20260831111604 | 62 | 0 | 0.0 | 2.0 | 0.00 | 0.17 | 0.17 | 85 | 1017.9 |
| 20260831110107 | 62 | 261 | 0.0 | 2.0 | 0.00 | 0.17 | 0.17 | 85 | 1018.0 |
| 20260831104605 | 62 | 273 | 0.0 | 4.0 | 0.00 | 0.17 | 0.17 | 84 | 1018.1 |
| 20260831103111 | 62 | 0 | 0.0 | 2.0 | 0.00 | 0.17 | 0.17 | 85 | 1018.2 |
| 20260831101610 | 63 | 0 | 1.0 | 5.0 | 0.00 | 0.17 | 0.17 | 85 | 1018.7 |
| 20260831100110 | 62 | 250 | 3.0 | 7.0 | 0.00 | 0.17 | 0.17 | 89 | 1019.1 |
| 20260831094608 | 63 | 0 | 0.0 | 3.0 | 0.00 | 0.17 | 0.17 | 91 | 1019.6 |
| 20260831093152 | 63 | 268 | 2.0 | 6.0 | 0.00 | 0.17 | 0.17 | 91 | 1020.1 |
| 20260831091606 | 64 | 275 | 2.0 | 4.0 | 0.03 | 0.17 | 0.17 | 91 | 1020.7 |
| 20260831090101 | 64 | 0 | 0.0 | 3.0 | 0.09 | 0.17 | 0.17 | 90 | 1020.9 |
| 20260831084652 | 64 | 59 | 2.0 | 7.0 | 0.14 | 0.17 | 0.17 | 89 | 1020.4 |
| 20260831083107 | 64 | 0 | 2.0 | 7.0 | 0.16 | 0.17 | 0.17 | 83 | 1020.0 |
| 20260831081602 | 65 | 160 | 6.0 | 19.0 | 0.13 | 0.14 | 0.14 | 81 | 1020.1 |
| 20260831080125 | 67 | 249 | 9.0 | 21.0 | 0.08 | 0.08 | 0.08 | 79 | 1020.6 |
| 20260831074605 | 69 | 200 | 10.0 | 19.0 | 0.03 | 0.03 | 0.03 | 69 | 1019.9 |
| 20260831073101 | 73 | 196 | 7.0 | 17.0 | 0.01 | 0.01 | 0.01 | 58 | 1018.9 |
| 20260831071612 | 73 | 212 | 10.0 | 23.0 | 0.01 | 0.01 | 0.01 | 67 | 1018.5 |
| 20260831070118 | 77 | 230 | 12.0 | 24.0 | 0.00 | 0.00 | 0.00 | 64 | 1018.5 |
| 20260831064603 | 77 | 0 | 0.0 | 2.0 | 0.00 | 0.00 | 0.00 | 69 | 1017.5 |